[[{"header":{"parameterUnit":"m.s-1","parameterCategory":2,"la1":30.2991,"la2":30.254,"lo1":-89.0895,"lo2":-89.0444,"dy":0.0017,"dx":0.0017,"nx":28,"ny":28,"refTime":"2024-03-29T03:00:00:Z","depth":"0","parameterNumber":2,"parameterNumberName":"U-component_of_CURRENTS"},"data":[0,0,0,0,0,0,0,0,0,0,0,0,0,0,0,0,0,0,0,0,0,0,0,0,0,0,0,0,0,0,0,0,0,0,0,0,0,0,0,0,0,0,0,0,0,0,0,0,0,0,0,0,0,0,0,0,0,0,-0.3128,-0.3129,0,-0.3135,-0.3135,-0.3135,-0.3092,-0.3091,-0.309,-0.3089,-0.3104,-0.3105,-0.3107,0,0,0,0,0,0,0,0,0,0,0,0,0,-0.3084,-0.3085,-0.3128,-0.3129,-0.3129,-0.3135,-0.3135,-0.3135,-0.3092,-0.3091,-0.309,-0.3088,-0.3103,-0.3105,-0.3107,0,0,0,0,0,0,0,0,0,0,0,0,0,-0.3097,-0.3085,-0.3128,-0.311,-0.3108,-0.3135,-0.3135,-0.3135,-0.3092,-0.3091,-0.3089,-0.3088,-0.3103,-0.3105,-0.3107,-0.3151,0,0,-0.3113,-0.3114,0,0,0,0,0,0,0,0,-0.3096,-0.3098,-0.3112,-0.3111,-0.311,-0.3113,-0.3125,-0.3141,-0.3093,-0.3096,-0.3089,-0.3087,-0.311,-0.3111,-0.3113,-0.3151,-0.3152,-0.3113,-0.3115,-0.3115,-0.3116,0,0,0,0,0,0,0,-0.3095,-0.3097,-0.3129,-0.3113,-0.3111,-0.3103,-0.3103,-0.3127,-0.3111,-0.3096,-0.3093,-0.3098,-0.3109,-0.3111,-0.3113,-0.3152,-0.3113,-0.3115,-0.3116,-0.3117,-0.318,-0.318,0,0,0,0,0,0,-0.31,-0.3097,-0.3129,-0.3129,-0.3101,-0.3105,-0.3105,-0.3112,-0.311,-0.3109,-0.3099,-0.3096,-0.3109,-0.3111,-0.3114,-0.3113,-0.3115,-0.3117,-0.3119,-0.3179,-0.318,-0.318,0,0,0,0,0,0,-0.3099,-0.3103,-0.3129,-0.3114,-0.3117,-0.3108,-0.3116,-0.3113,-0.3109,-0.3113,-0.3111,-0.3098,-0.3107,-0.3111,-0.3123,-0.3115,-0.3118,-0.312,-0.3179,-0.3179,-0.318,-0.3145,0,0,0,0,0,0,-0.3098,-0.3102,-0.3106,-0.3115,-0.3118,-0.3137,-0.3117,-0.3114,-0.3115,-0.3111,-0.3112,-0.3111,-0.3107,-0.312,-0.3125,-0.3118,-0.3122,-0.3178,-0.3179,-0.318,-0.3146,-0.3144,-0.3143,0,0,0,0,0,-0.3096,-0.3105,-0.3106,-0.311,-0.3124,-0.3138,-0.3139,-0.3125,-0.3117,-0.3116,-0.3112,-0.3111,-0.3128,-0.3122,-0.3128,-0.3121,-0.3178,-0.3179,-0.318,-0.3146,-0.3145,-0.3143,0,0,0,0,0,0,-0.3083,-0.3103,-0.3103,-0.3116,-0.3125,-0.3131,-0.313,-0.3131,-0.3129,-0.3123,-0.3122,-0.3122,-0.3124,-0.314,-0.3133,-0.3144,-0.3152,-0.3154,-0.3124,-0.3123,-0.3122,-0.31,-0.3123,0,0,0,0,0,-0.3087,-0.3095,-0.3114,-0.312,-0.3128,-0.3133,-0.3136,-0.3133,-0.3136,-0.3133,-0.3132,-0.3136,-0.3137,-0.3142,-0.3148,-0.3167,-0.3152,-0.3167,-0.3166,-0.3164,-0.3152,-0.3123,-0.3117,-0.3183,-0.3183,-0.3183,0,0,-0.3081,-0.3094,-0.3097,-0.3118,-0.3122,-0.313,-0.313,-0.3137,-0.3135,-0.3139,-0.3132,-0.3133,-0.3141,-0.3142,-0.3147,-0.3153,-0.3139,-0.3166,-0.3164,-0.3153,-0.3123,-0.3116,-0.311,-0.3184,-0.3184,-0.3184,0,0,-0.3071,-0.309,-0.309,-0.3105,-0.312,-0.3128,-0.3133,-0.3144,-0.3136,-0.3148,-0.3134,-0.3123,-0.3152,-0.313,-0.3131,-0.3135,-0.313,-0.3154,-0.3133,-0.3105,-0.3098,-0.3092,-0.3062,-0.3053,-0.3157,-0.3157,-0.3157,0,-0.3059,-0.3066,-0.3091,-0.3099,-0.3106,-0.3128,-0.3128,-0.3136,-0.3144,-0.314,-0.3141,-0.3138,-0.3135,-0.3118,-0.3109,-0.3127,-0.3118,-0.3133,-0.3099,-0.3093,-0.3088,-0.3058,-0.3049,-0.3155,-0.3155,-0.3156,-0.3156,0,-0.3045,-0.3056,-0.306,-0.3075,-0.3091,-0.3097,-0.3119,-0.3127,-0.3132,-0.3132,-0.3121,-0.3112,-0.3106,-0.3105,-0.3106,-0.3072,-0.3081,-0.3094,-0.3095,-0.3078,-0.3049,-0.304,-0.3153,-0.3154,-0.3154,-0.3154,0,0,-0.2984,-0.3038,-0.3033,-0.3043,-0.3078,-0.3088,-0.31,-0.3108,-0.3112,-0.3111,-0.3099,-0.3078,-0.3072,-0.3071,-0.3067,-0.3039,-0.2981,-0.3052,-0.3051,-0.3006,-0.292,-0.2831,-0.2813,-0.2995,-0.2994,-0.2993,-0.2914,0,-0.2951,-0.2965,-0.3,-0.3007,-0.3015,-0.3056,-0.3068,-0.3086,-0.3099,-0.31,-0.3081,-0.3075,-0.3064,-0.306,-0.3024,-0.3004,-0.2958,-0.3001,-0.2956,-0.2954,-0.2864,-0.2799,-0.2701,-0.2614,-0.2905,-0.2904,-0.2903,0,-0.29,-0.2923,-0.2928,-0.2979,-0.2986,-0.2997,-0.3024,-0.3041,-0.3061,-0.3075,-0.3064,-0.3068,-0.3025,-0.3022,-0.2946,-0.2982,-0.2936,-0.2911,-0.2908,-0.2827,-0.2847,-0.268,-0.2587,-0.2568,-0.2889,-0.289,-0.2891,0,-0.2818,-0.2861,-0.2864,-0.2879,-0.2945,-0.2951,-0.2979,-0.3016,-0.3033,-0.3052,-0.3068,-0.3036,-0.3023,-0.2966,-0.2912,-0.2935,-0.2827,-0.2855,-0.2722,-0.2717,-0.2621,-0.2608,-0.2485,-0.2769,-0.2769,-0.2769,-0.277,0,-0.2755,-0.2752,-0.2828,-0.2828,-0.2834,-0.2901,-0.2908,-0.2944,-0.299,-0.3001,-0.3039,-0.3031,-0.301,-0.2961,-0.2903,-0.2773,-0.2813,-0.2686,-0.2675,-0.2607,-0.2595,-0.2566,-0.2597,-0.2767,-0.2767,-0.2768,-0.2768,0,-0.2648,-0.2701,-0.2706,-0.2774,-0.2792,-0.279,-0.2863,-0.2878,-0.2944,-0.296,-0.2969,-0.3015,-0.2949,-0.2904,-0.2815,-0.2749,-0.2588,-0.2587,-0.2504,-0.2482,-0.2331,-0.2364,-0.2222,-0.216,-0.2422,-0.2419,-0.2416,0,-0.2588,-0.2581,-0.2641,-0.2645,-0.2668,-0.2696,-0.272,-0.2818,-0.2847,-0.2933,-0.2929,-0.2913,-0.2857,-0.2706,-0.2588,-0.2444,-0.2454,-0.2287,-0.2288,-0.2269,-0.2301,-0.2332,-0.2293,-0.2158,-0.2153,-0.215,-0.2147,0,-0.2461,-0.2484,-0.2495,-0.2515,-0.2535,-0.2568,-0.2616,-0.2644,-0.276,-0.278,-0.2788,-0.2755,-0.2647,-0.2461,-0.2309,-0.222,-0.2229,-0.2206,-0.2207,-0.2075,-0.2082,-0.2035,-0.2281,-0.2115,-0.2118,-0.212,-0.2122,-0.2123,-0.2344,-0.2326,-0.2347,-0.235,-0.2387,-0.2412,-0.2385,-0.2463,-0.248,-0.2482,-0.2562,-0.2464,-0.2375,-0.2134,-0.2046,-0.1885,-0.1959,-0.1836,-0.1877,-0.191,-0.1835,-0.1997,-0.181,-0.1812,-0.1813,-0.1814,-0.1815,0,-0.2185,-0.2186,-0.2185,-0.2188,-0.2168,-0.2242,-0.2285,-0.2238,-0.2197,-0.2237,-0.2187,-0.2091,-0.1917,-0.1853,-0.1695,-0.16,-0.1579,-0.1574,-0.1613,-0.1588,-0.1731,-0.1705,-0.1462,-0.1462,-0.1462,-0.1462,-0.1462,-0.1462,-0.21,-0.2039,-0.2047,-0.1955,-0.1961,-0.1882,-0.1869,-0.183,-0.1824,-0.1729,-0.1691,-0.1705,-0.1684,-0.1721,-0.1573,-0.1488,-0.1466,-0.1407,-0.1443,-0.1584,-0.1613,-0.1642,-0.1622,-0.1365,-0.1365,-0.1245,-0.1244,-0.1243]},{"header":{"parameterUnit":"m.s-1","parameterCategory":2,"la1":30.2991,"la2":30.254,"lo1":-89.0895,"lo2":-89.0444,"dy":0.0017,"dx":0.0017,"nx":28,"ny":28,"refTime":"2024-03-29T03:00:00:Z","depth":"0","parameterNumber":3,"parameterNumberName":"V-component_of_CURRENTS"},"data":[0,0,0,0,0,0,0,0,0,0,0,0,0,0,0,0,0,0,0,0,0,0,0,0,0,0,0,0,0,0,0,0,0,0,0,0,0,0,0,0,0,0,0,0,0,0,0,0,0,0,0,0,0,0,0,0,0,0,-0.0359,-0.0359,0,-0.0294,-0.0293,-0.0292,-0.0234,-0.0233,-0.0233,-0.0232,-0.0109,-0.0107,-0.0104,0,0,0,0,0,0,0,0,0,0,0,0,0,-0.0395,-0.0395,-0.0359,-0.0358,-0.0358,-0.0294,-0.0293,-0.0292,-0.0234,-0.0233,-0.0232,-0.0232,-0.011,-0.0107,-0.0104,0,0,0,0,0,0,0,0,0,0,0,0,0,-0.0358,-0.0395,-0.0359,-0.0322,-0.0319,-0.0295,-0.0293,-0.0292,-0.0234,-0.0233,-0.0232,-0.0232,-0.0111,-0.0107,-0.0103,-0.0094,0,0,-0.0091,-0.0089,0,0,0,0,0,0,0,0,-0.036,-0.0357,-0.0328,-0.0325,-0.0321,-0.0273,-0.0261,-0.0223,-0.0234,-0.0264,-0.0232,-0.0231,-0.0161,-0.0152,-0.014,-0.0088,-0.0083,-0.009,-0.0088,-0.0086,-0.0085,0,0,0,0,0,0,0,-0.0363,-0.0359,-0.0332,-0.0328,-0.0323,-0.0296,-0.029,-0.0254,-0.0215,-0.0261,-0.0258,-0.0253,-0.0158,-0.0144,-0.0137,-0.0081,-0.009,-0.0087,-0.0084,-0.0083,-0.0002,-0.0002,0,0,0,0,0,0,-0.0377,-0.0362,-0.0334,-0.033,-0.0341,-0.0297,-0.029,-0.0287,-0.0217,-0.0206,-0.0254,-0.0251,-0.0152,-0.0142,-0.0132,-0.0113,-0.0086,-0.0082,-0.008,-0.0001,-0.0002,-0.0002,0,0,0,0,0,0,-0.0379,-0.0376,-0.0336,-0.0345,-0.0339,-0.0297,-0.0295,-0.0287,-0.0273,-0.0212,-0.02,-0.025,-0.0151,-0.0138,-0.0107,-0.0108,-0.008,-0.0077,-0.0001,-0.0001,-0.0002,-0.0076,0,0,0,0,0,0,-0.038,-0.0377,-0.0382,-0.0347,-0.0339,-0.0328,-0.0296,-0.0286,-0.0273,-0.0268,-0.0204,-0.0192,-0.0149,-0.0114,-0.0103,-0.0101,-0.0073,-0.0001,-0.0001,-0.0002,-0.0073,-0.0079,-0.0084,0,0,0,0,0,-0.0381,-0.0393,-0.0383,-0.0379,-0.0347,-0.0329,-0.0322,-0.0288,-0.0274,-0.0273,-0.0233,-0.0194,-0.011,-0.0111,-0.0098,-0.0095,-0.0,-0.0001,-0.0002,-0.0071,-0.0078,-0.0084,0,0,0,0,0,0,-0.0412,-0.0387,-0.0375,-0.0379,-0.0359,-0.032,-0.0317,-0.0296,-0.0265,-0.026,-0.0201,-0.0187,-0.0163,-0.0121,-0.0124,-0.0074,-0.0047,-0.0045,-0.0104,-0.011,-0.0115,-0.012,-0.007,0,0,0,0,0,-0.0424,-0.0425,-0.0396,-0.0401,-0.0393,-0.0358,-0.0347,-0.0326,-0.0294,-0.0279,-0.0236,-0.019,-0.0157,-0.0128,-0.0095,-0.0065,-0.0013,-0.0053,-0.0059,-0.0064,-0.0059,0.0001,0.0002,-0.0005,-0.0005,-0.0005,0,0,-0.0438,-0.0425,-0.0426,-0.0408,-0.0389,-0.0387,-0.0349,-0.0339,-0.0334,-0.0271,-0.0252,-0.0215,-0.0158,-0.0131,-0.0114,-0.0092,-0.0033,-0.0065,-0.007,-0.0061,0.0001,0.0002,0.0002,-0.0005,-0.0005,-0.0005,0,0,-0.0472,-0.0456,-0.047,-0.0458,-0.0437,-0.0413,-0.0414,-0.038,-0.0359,-0.0341,-0.0298,-0.026,-0.0206,-0.0161,-0.0132,-0.0145,-0.0076,-0.0135,-0.0151,-0.0093,-0.0092,-0.009,-0.0019,-0.001,-0.0125,-0.0125,-0.0125,0,-0.0493,-0.0504,-0.0471,-0.0481,-0.0477,-0.043,-0.0443,-0.0417,-0.0378,-0.0361,-0.0344,-0.0265,-0.0218,-0.0173,-0.0176,-0.0156,-0.0109,-0.0133,-0.01,-0.0097,-0.0094,-0.0021,-0.0011,-0.0128,-0.0128,-0.0128,-0.0127,0,-0.0535,-0.0544,-0.0551,-0.0547,-0.0536,-0.054,-0.0502,-0.0486,-0.0457,-0.0423,-0.0382,-0.032,-0.0264,-0.0246,-0.0212,-0.0168,-0.0138,-0.0127,-0.0086,-0.0098,-0.002,-0.0008,-0.0134,-0.0132,-0.0131,-0.013,0,0,-0.0583,-0.0583,-0.0586,-0.0598,-0.0573,-0.057,-0.0558,-0.053,-0.0516,-0.0467,-0.0439,-0.0377,-0.0332,-0.0296,-0.0244,-0.0186,-0.0123,-0.0148,-0.0144,-0.0081,0.0017,0.0069,0.0088,-0.0109,-0.0108,-0.0107,0.0064,0,-0.0629,-0.0669,-0.0647,-0.0678,-0.0696,-0.0648,-0.064,-0.0604,-0.0558,-0.0515,-0.0437,-0.0393,-0.0353,-0.0323,-0.0262,-0.0159,-0.0095,-0.0169,0.0023,0.003,0.0074,0.0102,0.0127,0.0283,0.0077,0.0079,0.008,0,-0.0679,-0.07,-0.0743,-0.0748,-0.0749,-0.0751,-0.0721,-0.0707,-0.0628,-0.059,-0.0522,-0.0453,-0.0355,-0.0327,-0.0149,-0.0199,-0.0099,-0.0018,-0.0009,0.0076,0.0104,0.0263,0.0314,0.0447,0.01,0.0098,0.0097,0,-0.0738,-0.0765,-0.0803,-0.0807,-0.0801,-0.0803,-0.079,-0.0731,-0.0712,-0.0628,-0.0591,-0.0476,-0.0396,-0.0274,-0.0095,-0.0121,0.011,0.0096,0.024,0.0246,0.0325,0.0335,0.0528,0.0218,0.0218,0.0217,0.0217,0,-0.0799,-0.0828,-0.0836,-0.0858,-0.0895,-0.0863,-0.087,-0.0838,-0.0774,-0.0734,-0.0632,-0.0554,-0.038,-0.0223,-0.009,0.0133,0.0122,0.0255,0.0297,0.0301,0.0305,0.0472,0.0513,0.0224,0.0222,0.0221,0.022,0,-0.0857,-0.0863,-0.0909,-0.092,-0.0927,-0.0952,-0.0937,-0.0932,-0.0861,-0.0801,-0.0772,-0.0591,-0.0374,-0.0187,0.0053,0.0161,0.0445,0.0425,0.0428,0.0466,0.0693,0.0727,0.0967,0.106,0.0603,0.0605,0.0607,0,-0.089,-0.0922,-0.0964,-0.0996,-0.1004,-0.1028,-0.1041,-0.099,-0.0967,-0.0808,-0.0773,-0.0548,-0.0362,0.0013,0.0243,0.0501,0.0586,0.0661,0.0608,0.0734,0.0803,0.0817,0.0878,0.0693,0.0696,0.0698,0.0699,0,-0.0948,-0.0959,-0.0996,-0.1069,-0.1101,-0.1133,-0.1132,-0.1121,-0.1027,-0.0931,-0.0738,-0.057,-0.0194,0.014,0.0464,0.0601,0.0759,0.071,0.0845,0.0902,0.0927,0.1027,0.0559,0.0718,0.0716,0.0714,0.0713,0.0713,-0.098,-0.1026,-0.1074,-0.1138,-0.1182,-0.121,-0.121,-0.1155,-0.1079,-0.089,-0.0722,-0.0426,0.0028,0.0502,0.0674,0.0999,0.0945,0.1069,0.1107,0.1116,0.1187,0.0765,0.0957,0.0957,0.0957,0.0956,0.0956,0,-0.1018,-0.1068,-0.1138,-0.1208,-0.1257,-0.1262,-0.1249,-0.1195,-0.1066,-0.0851,-0.0623,-0.0084,0.0353,0.0743,0.121,0.1383,0.1405,0.1455,0.148,0.1529,0.1174,0.1157,0.1395,0.1395,0.1395,0.1395,0.1395,0.1394,-0.104,-0.1113,-0.1153,-0.1247,-0.1291,-0.1311,-0.129,-0.116,-0.0994,-0.0607,-0.0273,-0.0003,0.0558,0.1292,0.1714,0.1738,0.189,0.1857,0.1956,0.1694,0.166,0.1627,0.1623,0.1955,0.1956,0.2295,0.2298,0.2301]}],[{"header":{"parameterUnit":"m.s-1","parameterCategory":2,"la1":30.2991,"la2":30.254,"lo1":-89.0895,"lo2":-89.0444,"dy":0.0017,"dx":0.0017,"nx":28,"ny":28,"refTime":"2024-03-29T03:00:00:Z","depth":"2","parameterNumber":2,"parameterNumberName":"U-component_of_CURRENTS"},"data":[0,0,0,0,0,0,0,0,0,0,0,0,0,0,0,0,0,0,0,0,0,0,0,0,0,0,0,0,0,0,0,0,0,0,0,0,0,0,0,0,0,0,0,0,0,0,0,0,0,0,0,0,0,0,0,0,0,0,-0.2744,-0.2744,0,-0.2768,-0.2768,-0.2768,-0.2745,-0.2744,-0.2744,-0.2743,-0.2772,-0.2773,-0.2775,0,0,0,0,0,0,0,0,0,0,0,0,0,-0.2689,-0.269,-0.2744,-0.2744,-0.2745,-0.2768,-0.2768,-0.2768,-0.2745,-0.2744,-0.2743,-0.2743,-0.2771,-0.2773,-0.2775,0,0,0,0,0,0,0,0,0,0,0,0,0,-0.2711,-0.269,-0.2744,-0.2737,-0.2737,-0.2768,-0.2768,-0.2768,-0.2745,-0.2744,-0.2743,-0.2742,-0.2771,-0.2773,-0.2775,-0.2811,0,0,-0.2782,-0.2783,0,0,0,0,0,0,0,0,-0.271,-0.2713,-0.2738,-0.2738,-0.2738,-0.2754,-0.2759,-0.2783,-0.2746,-0.2741,-0.2743,-0.2742,-0.2768,-0.277,-0.2775,-0.2813,-0.2814,-0.2782,-0.2783,-0.2784,-0.2785,0,0,0,0,0,0,0,-0.2709,-0.2712,-0.2752,-0.2739,-0.2738,-0.2737,-0.2739,-0.2764,-0.2759,-0.2741,-0.274,-0.2745,-0.2768,-0.2773,-0.2776,-0.2814,-0.2782,-0.2784,-0.2785,-0.2786,-0.2851,-0.2851,0,0,0,0,0,0,-0.271,-0.2711,-0.2751,-0.2752,-0.2723,-0.2739,-0.2741,-0.2748,-0.2759,-0.276,-0.2746,-0.2744,-0.277,-0.2773,-0.2776,-0.279,-0.2784,-0.2786,-0.2787,-0.2851,-0.2851,-0.2851,0,0,0,0,0,0,-0.2709,-0.2714,-0.275,-0.2733,-0.2738,-0.2741,-0.275,-0.275,-0.2756,-0.2763,-0.2763,-0.2753,-0.2769,-0.2773,-0.2794,-0.2792,-0.2787,-0.2789,-0.285,-0.2851,-0.2851,-0.2836,0,0,0,0,0,0,-0.2707,-0.2713,-0.2719,-0.2734,-0.2739,-0.2765,-0.2751,-0.2751,-0.2762,-0.2759,-0.277,-0.2771,-0.2768,-0.2791,-0.2796,-0.2795,-0.2791,-0.285,-0.285,-0.2851,-0.2836,-0.2836,-0.2837,0,0,0,0,0,-0.2705,-0.2716,-0.2719,-0.2724,-0.2747,-0.2766,-0.2769,-0.2766,-0.2763,-0.2767,-0.2772,-0.277,-0.2799,-0.2793,-0.28,-0.2799,-0.2849,-0.285,-0.2851,-0.2836,-0.2836,-0.2837,0,0,0,0,0,0,-0.2691,-0.2715,-0.2719,-0.2735,-0.275,-0.2763,-0.2768,-0.2774,-0.2782,-0.2781,-0.2784,-0.2786,-0.2798,-0.281,-0.2803,-0.282,-0.2821,-0.2824,-0.2808,-0.2808,-0.2808,-0.2787,-0.2793,0,0,0,0,0,-0.2695,-0.2706,-0.273,-0.274,-0.275,-0.2763,-0.2772,-0.2775,-0.2786,-0.2788,-0.2795,-0.2803,-0.2809,-0.2817,-0.2825,-0.2848,-0.283,-0.285,-0.285,-0.285,-0.2837,-0.2809,-0.2804,-0.2854,-0.2854,-0.2854,0,0,-0.269,-0.2706,-0.2711,-0.2738,-0.2748,-0.2763,-0.2765,-0.2781,-0.2786,-0.2793,-0.2801,-0.2806,-0.2815,-0.2824,-0.2831,-0.2833,-0.2827,-0.2851,-0.285,-0.2838,-0.2809,-0.2804,-0.2799,-0.2855,-0.2855,-0.2855,0,0,-0.2684,-0.2705,-0.2711,-0.2729,-0.2753,-0.2766,-0.2774,-0.2794,-0.2794,-0.2816,-0.2808,-0.2805,-0.284,-0.2821,-0.2823,-0.2834,-0.2826,-0.2852,-0.2838,-0.2811,-0.2806,-0.2801,-0.2771,-0.2764,-0.2854,-0.2854,-0.2854,0,-0.2675,-0.2688,-0.2715,-0.2728,-0.274,-0.2768,-0.2777,-0.279,-0.281,-0.2811,-0.2816,-0.2827,-0.2827,-0.2819,-0.2813,-0.283,-0.2821,-0.2835,-0.2808,-0.2803,-0.2798,-0.2769,-0.2761,-0.2854,-0.2854,-0.2854,-0.2854,0,-0.2669,-0.2686,-0.2694,-0.2718,-0.2738,-0.2752,-0.2779,-0.2795,-0.2808,-0.2815,-0.2817,-0.2814,-0.2815,-0.2816,-0.2818,-0.2791,-0.2798,-0.2807,-0.2802,-0.2792,-0.2763,-0.2755,-0.2853,-0.2853,-0.2853,-0.2853,0,0,-0.2617,-0.2677,-0.2675,-0.2691,-0.2734,-0.2748,-0.277,-0.2787,-0.2797,-0.2808,-0.2806,-0.2797,-0.2795,-0.2795,-0.2793,-0.2767,-0.2719,-0.2777,-0.2775,-0.2736,-0.2662,-0.2579,-0.2562,-0.2732,-0.2731,-0.273,-0.2655,0,-0.2594,-0.2619,-0.2655,-0.2675,-0.2691,-0.2734,-0.2752,-0.2776,-0.2797,-0.2806,-0.2794,-0.2797,-0.279,-0.2792,-0.276,-0.274,-0.2698,-0.2738,-0.2687,-0.2685,-0.2602,-0.255,-0.239,-0.2302,-0.2647,-0.2645,-0.2644,0,-0.2556,-0.2584,-0.2603,-0.266,-0.267,-0.2688,-0.2724,-0.2747,-0.2773,-0.2791,-0.279,-0.2798,-0.2763,-0.2761,-0.2691,-0.2726,-0.2682,-0.2657,-0.2654,-0.2571,-0.2585,-0.2369,-0.2274,-0.2631,-0.2632,-0.2633,-0.2634,0,-0.2486,-0.2539,-0.2553,-0.2571,-0.2643,-0.2655,-0.2688,-0.2729,-0.2748,-0.2776,-0.2794,-0.2773,-0.2762,-0.2712,-0.2661,-0.2681,-0.258,-0.2604,-0.2479,-0.2474,-0.2321,-0.2303,-0.2525,-0.2525,-0.2525,-0.2525,-0.2526,0,-0.2437,-0.2445,-0.2523,-0.2531,-0.2548,-0.2614,-0.2631,-0.267,-0.2718,-0.2727,-0.2772,-0.2763,-0.2751,-0.2705,-0.2652,-0.253,-0.2567,-0.2447,-0.2435,-0.2312,-0.2296,-0.2575,-0.2582,-0.2523,-0.2523,-0.2524,-0.2524,0,-0.2346,-0.2402,-0.2419,-0.2493,-0.2514,-0.2521,-0.2595,-0.2609,-0.2677,-0.269,-0.2701,-0.2744,-0.2683,-0.265,-0.2567,-0.2505,-0.241,-0.2355,-0.221,-0.218,-0.2327,-0.2335,-0.2205,-0.2201,-0.2198,-0.2195,-0.2193,0,-0.2297,-0.2299,-0.2369,-0.2377,-0.2405,-0.244,-0.2463,-0.2559,-0.258,-0.2657,-0.2646,-0.2637,-0.2578,-0.2444,-0.2338,-0.221,-0.2296,-0.2003,-0.1994,-0.2286,-0.2288,-0.2301,-0.2312,-0.1792,-0.1787,-0.1782,-0.1779,0,-0.219,-0.2218,-0.2237,-0.2262,-0.2286,-0.2316,-0.236,-0.238,-0.2482,-0.2495,-0.2488,-0.2455,-0.236,-0.2157,-0.203,-0.1943,-0.2015,-0.1908,-0.2226,-0.1904,-0.1891,-0.1896,-0.1922,-0.1739,-0.1743,-0.1746,-0.1748,-0.175,-0.2089,-0.2079,-0.2107,-0.2116,-0.2151,-0.2163,-0.2129,-0.2187,-0.219,-0.2167,-0.2248,-0.2125,-0.2103,-0.18,-0.1684,-0.1598,-0.1734,-0.166,-0.1676,-0.1696,-0.1667,-0.165,-0.1447,-0.1449,-0.1451,-0.1453,-0.1454,0,-0.1949,-0.1955,-0.1958,-0.1961,-0.1936,-0.2008,-0.2027,-0.196,-0.1894,-0.1909,-0.185,-0.1627,-0.1497,-0.1474,-0.1277,-0.1234,-0.1244,-0.1185,-0.1207,-0.1246,-0.1281,-0.1234,-0.0897,-0.0896,-0.0894,-0.0892,0,0,-0.1872,-0.1822,-0.1829,-0.1735,-0.1738,-0.1645,-0.1618,-0.1545,-0.1513,-0.1383,-0.131,-0.1395,-0.1431,-0.1162,-0.1102,-0.0967,-0.1099,-0.0918,-0.1366,-0.1431,-0.1464,-0.1554,-0.1525,0,0,0,0,0]},{"header":{"parameterUnit":"m.s-1","parameterCategory":2,"la1":30.2991,"la2":30.254,"lo1":-89.0895,"lo2":-89.0444,"dy":0.0017,"dx":0.0017,"nx":28,"ny":28,"refTime":"2024-03-29T03:00:00:Z","depth":"2","parameterNumber":3,"parameterNumberName":"V-component_of_CURRENTS"},"data":[0,0,0,0,0,0,0,0,0,0,0,0,0,0,0,0,0,0,0,0,0,0,0,0,0,0,0,0,0,0,0,0,0,0,0,0,0,0,0,0,0,0,0,0,0,0,0,0,0,0,0,0,0,0,0,0,0,0,-0.0438,-0.0437,0,-0.0378,-0.0377,-0.0377,-0.0321,-0.0321,-0.032,-0.032,-0.0207,-0.0204,-0.0202,0,0,0,0,0,0,0,0,0,0,0,0,0,-0.0469,-0.0469,-0.0438,-0.0437,-0.0437,-0.0378,-0.0377,-0.0376,-0.0321,-0.0321,-0.032,-0.032,-0.0208,-0.0205,-0.0202,0,0,0,0,0,0,0,0,0,0,0,0,0,-0.0436,-0.0469,-0.0438,-0.0403,-0.04,-0.0379,-0.0377,-0.0376,-0.0322,-0.0321,-0.032,-0.0319,-0.0209,-0.0205,-0.0201,-0.0195,0,0,-0.019,-0.0188,0,0,0,0,0,0,0,0,-0.0438,-0.0435,-0.0409,-0.0406,-0.0402,-0.0358,-0.0347,-0.0313,-0.0322,-0.035,-0.032,-0.0319,-0.0254,-0.0246,-0.0236,-0.0189,-0.0184,-0.019,-0.0187,-0.0186,-0.0185,0,0,0,0,0,0,0,-0.044,-0.0437,-0.0413,-0.0408,-0.0404,-0.0379,-0.0373,-0.034,-0.0305,-0.0347,-0.0343,-0.0339,-0.0251,-0.024,-0.0232,-0.0183,-0.019,-0.0186,-0.0184,-0.0183,-0.0114,-0.0114,0,0,0,0,0,0,-0.0453,-0.0439,-0.0415,-0.0411,-0.042,-0.0379,-0.0373,-0.0371,-0.0306,-0.0297,-0.034,-0.0337,-0.0246,-0.0237,-0.0228,-0.0208,-0.0186,-0.0182,-0.018,-0.0113,-0.0114,-0.0114,0,0,0,0,0,0,-0.0454,-0.0452,-0.0417,-0.0425,-0.0419,-0.038,-0.0378,-0.0371,-0.0358,-0.0302,-0.029,-0.0335,-0.0245,-0.0234,-0.0205,-0.0203,-0.018,-0.0177,-0.0113,-0.0113,-0.0114,-0.0172,0,0,0,0,0,0,-0.0455,-0.0453,-0.0458,-0.0426,-0.0419,-0.0409,-0.0379,-0.037,-0.0357,-0.0353,-0.0294,-0.0283,-0.0244,-0.0211,-0.0201,-0.0197,-0.0174,-0.0112,-0.0113,-0.0114,-0.0169,-0.0174,-0.0178,0,0,0,0,0,-0.0457,-0.0467,-0.0458,-0.0455,-0.0427,-0.041,-0.0404,-0.0372,-0.0358,-0.0357,-0.032,-0.0284,-0.0209,-0.0209,-0.0197,-0.0192,-0.0112,-0.0113,-0.0114,-0.0167,-0.0173,-0.0178,0,0,0,0,0,0,-0.0484,-0.0462,-0.0451,-0.0455,-0.0437,-0.0401,-0.0398,-0.0379,-0.035,-0.0344,-0.0291,-0.0278,-0.0256,-0.0219,-0.022,-0.0176,-0.0154,-0.0152,-0.0198,-0.0203,-0.0208,-0.0206,-0.0171,0,0,0,0,0,-0.0494,-0.0496,-0.047,-0.0474,-0.0467,-0.0435,-0.0425,-0.0405,-0.0376,-0.0362,-0.0323,-0.0282,-0.0251,-0.0224,-0.0196,-0.0168,-0.0121,-0.0157,-0.0162,-0.0166,-0.0158,-0.0099,-0.0098,-0.0117,-0.0117,-0.0117,0,0,-0.0507,-0.0496,-0.0497,-0.0481,-0.0463,-0.0459,-0.0426,-0.0416,-0.0409,-0.0355,-0.0334,-0.0302,-0.0252,-0.0226,-0.0211,-0.0191,-0.0137,-0.0167,-0.0171,-0.016,-0.01,-0.0098,-0.0096,-0.0118,-0.0118,-0.0118,0,0,-0.0535,-0.0523,-0.0533,-0.0522,-0.0503,-0.0481,-0.0482,-0.045,-0.0431,-0.0413,-0.0374,-0.0338,-0.0293,-0.0249,-0.0222,-0.0233,-0.0174,-0.0229,-0.0235,-0.018,-0.0177,-0.0174,-0.0115,-0.0107,-0.0219,-0.0219,-0.0219,0,-0.0552,-0.0561,-0.0534,-0.054,-0.0535,-0.0496,-0.0504,-0.048,-0.0443,-0.0426,-0.0414,-0.0341,-0.0299,-0.0254,-0.0256,-0.0241,-0.0202,-0.0219,-0.0185,-0.0181,-0.0177,-0.0117,-0.0107,-0.0222,-0.0221,-0.0221,-0.0221,0,-0.0585,-0.0592,-0.0597,-0.0591,-0.058,-0.0583,-0.0548,-0.0533,-0.0507,-0.0475,-0.0436,-0.038,-0.0329,-0.0314,-0.0285,-0.0239,-0.0218,-0.0208,-0.017,-0.0178,-0.0115,-0.0103,-0.0226,-0.0225,-0.0224,-0.0223,0,0,-0.0627,-0.0623,-0.0626,-0.0634,-0.0609,-0.0606,-0.0591,-0.0562,-0.0548,-0.0503,-0.0475,-0.0416,-0.0377,-0.0344,-0.03,-0.0244,-0.0183,-0.0215,-0.0211,-0.0156,-0.0057,-0.0022,-0.0006,-0.0171,-0.0169,-0.0168,-0.0024,0,-0.0663,-0.0694,-0.0672,-0.0694,-0.0707,-0.0665,-0.0654,-0.062,-0.0579,-0.054,-0.0466,-0.0427,-0.039,-0.0365,-0.0304,-0.0217,-0.0155,-0.0222,-0.0057,-0.0052,-0.0019,0.0008,-0.0025,0.0102,-0.0013,-0.0011,-0.0009,0,-0.0703,-0.0719,-0.0751,-0.0752,-0.0751,-0.0751,-0.0722,-0.0707,-0.0634,-0.06,-0.0535,-0.0475,-0.0383,-0.0359,-0.0195,-0.0243,-0.0153,-0.0082,-0.0075,-0.0011,0.0005,0.0092,0.0128,0.0011,0.001,0.0008,0.0007,0,-0.0756,-0.0773,-0.0803,-0.0805,-0.0795,-0.0794,-0.0782,-0.0727,-0.0711,-0.0633,-0.0604,-0.0492,-0.0427,-0.0308,-0.0154,-0.0174,0.0028,0.0021,0.0141,0.0144,0.0167,0.017,0.0139,0.0139,0.0139,0.0138,0.0138,0,-0.0807,-0.083,-0.0833,-0.0851,-0.0883,-0.0849,-0.0856,-0.0826,-0.0769,-0.0741,-0.064,-0.058,-0.0412,-0.0276,-0.0151,0.0043,0.0039,0.0156,0.019,0.0145,0.0144,0.0103,0.0097,0.0144,0.0143,0.0142,0.0141,0,-0.086,-0.0862,-0.09,-0.0905,-0.0912,-0.0935,-0.0923,-0.0921,-0.0857,-0.0814,-0.079,-0.0631,-0.0442,-0.0265,-0.0046,0.0056,0.0227,0.0294,0.0235,0.0259,0.0303,0.0292,0.0441,0.0444,0.0446,0.0448,0.0449,0,-0.0889,-0.0916,-0.0951,-0.0982,-0.0988,-0.1012,-0.1026,-0.098,-0.0965,-0.0837,-0.0815,-0.0622,-0.0468,-0.0131,0.0088,0.033,0.0313,0.0426,0.0385,0.0319,0.0337,0.0322,0.0309,0.0394,0.0395,0.0396,0.0397,0,-0.0942,-0.0952,-0.0984,-0.1054,-0.1087,-0.1119,-0.1125,-0.1121,-0.1044,-0.0973,-0.0826,-0.0687,-0.0352,-0.0072,0.0233,0.0356,0.0381,0.045,0.0419,0.0314,0.0285,0.0298,0.0285,0.0404,0.0403,0.0402,0.0402,0.0402,-0.0975,-0.1018,-0.1062,-0.1124,-0.1169,-0.1203,-0.1209,-0.1173,-0.1123,-0.0973,-0.0842,-0.0593,-0.0337,0.0118,0.0325,0.0504,0.0488,0.0518,0.0511,0.0505,0.0466,0.0441,0.0582,0.0582,0.0583,0.0583,0.0583,0,-0.1015,-0.1062,-0.1128,-0.1197,-0.1249,-0.1256,-0.1257,-0.1216,-0.1127,-0.0951,-0.0772,-0.0459,-0.0144,0.0122,0.0423,0.0591,0.0554,0.0603,0.0522,0.0514,0.0508,0.0464,0.0583,0.0584,0.0584,0.0585,0,0,-0.1039,-0.1109,-0.1146,-0.1244,-0.1289,-0.132,-0.1308,-0.1207,-0.1067,-0.0865,-0.0664,-0.0425,-0.0109,0.0105,0.031,0.0467,0.0442,0.0469,0.0448,0.032,0.0311,0.0436,0.0359,0,0,0,0,0]}],[{"header":{"parameterUnit":"m.s-1","parameterCategory":2,"la1":30.2991,"la2":30.254,"lo1":-89.0895,"lo2":-89.0444,"dy":0.0017,"dx":0.0017,"nx":28,"ny":28,"refTime":"2024-03-29T03:00:00:Z","depth":"4","parameterNumber":2,"parameterNumberName":"U-component_of_CURRENTS"},"data":[0,0,0,0,0,0,0,0,0,0,0,0,0,0,0,0,0,0,0,0,0,0,0,0,0,0,0,0,0,0,0,0,0,0,0,0,0,0,0,0,0,0,0,0,0,0,0,0,0,0,0,0,0,0,0,0,0,0,-0.1859,-0.186,0,-0.1941,-0.1942,-0.1943,-0.1993,-0.1993,-0.1993,-0.1994,-0.2102,-0.2104,-0.2107,0,0,0,0,0,0,0,0,0,0,0,0,0,-0.1759,-0.1761,-0.1859,-0.186,-0.1861,-0.1941,-0.1942,-0.1943,-0.1993,-0.1993,-0.1994,-0.1994,-0.2101,-0.2104,-0.2107,0,0,0,0,0,0,0,0,0,0,0,0,0,-0.1817,-0.1761,-0.1859,-0.1896,-0.1901,-0.1941,-0.1942,-0.1943,-0.1993,-0.1993,-0.1994,-0.1994,-0.21,-0.2103,-0.2107,-0.2121,0,0,-0.2119,-0.2121,0,0,0,0,0,0,0,0,-0.1814,-0.182,-0.189,-0.1894,-0.1899,-0.1958,-0.1947,-0.2004,-0.1992,-0.1956,-0.1994,-0.1994,-0.2056,-0.2064,-0.2076,-0.2126,-0.213,-0.2119,-0.2122,-0.2123,-0.2124,0,0,0,0,0,0,0,-0.181,-0.1817,-0.189,-0.1891,-0.1896,-0.1914,-0.1923,-0.1958,-0.2002,-0.196,-0.1964,-0.1975,-0.2059,-0.2072,-0.2079,-0.2132,-0.2119,-0.2123,-0.2125,-0.2126,-0.2252,-0.2253,0,0,0,0,0,0,-0.1801,-0.1813,-0.1888,-0.1893,-0.1858,-0.1916,-0.1925,-0.1938,-0.2001,-0.2012,-0.1974,-0.1977,-0.2065,-0.2075,-0.2083,-0.2156,-0.2123,-0.2127,-0.2129,-0.2251,-0.2252,-0.2253,0,0,0,0,0,0,-0.1798,-0.1806,-0.1884,-0.1856,-0.1867,-0.1917,-0.1931,-0.1939,-0.1986,-0.2012,-0.2023,-0.2015,-0.2066,-0.2078,-0.214,-0.2159,-0.2128,-0.2132,-0.225,-0.2251,-0.2253,-0.2269,0,0,0,0,0,0,-0.1795,-0.1805,-0.1828,-0.1855,-0.1868,-0.1926,-0.193,-0.194,-0.199,-0.1995,-0.2051,-0.2059,-0.2068,-0.2134,-0.2144,-0.2164,-0.2135,-0.2248,-0.225,-0.2252,-0.2267,-0.2271,-0.2274,0,0,0,0,0,-0.1791,-0.1813,-0.1828,-0.1838,-0.1893,-0.1927,-0.1936,-0.1971,-0.1992,-0.2015,-0.2055,-0.2059,-0.2153,-0.2139,-0.215,-0.2171,-0.2247,-0.225,-0.2252,-0.2265,-0.227,-0.2274,0,0,0,0,0,0,-0.1781,-0.1821,-0.1838,-0.1872,-0.1906,-0.1936,-0.1967,-0.1991,-0.2042,-0.2059,-0.2082,-0.2093,-0.2149,-0.2163,-0.2147,-0.2212,-0.2198,-0.2202,-0.2204,-0.2209,-0.2212,-0.2188,-0.2138,0,0,0,0,0,-0.1789,-0.1818,-0.1853,-0.1884,-0.1904,-0.1943,-0.197,-0.1995,-0.2034,-0.2059,-0.2096,-0.2134,-0.2162,-0.219,-0.2217,-0.2264,-0.224,-0.2282,-0.2286,-0.2288,-0.2277,-0.2257,-0.2256,-0.2261,-0.2261,-0.2261,0,0,-0.1795,-0.182,-0.1839,-0.1885,-0.1916,-0.1948,-0.1961,-0.201,-0.2041,-0.2063,-0.2129,-0.2154,-0.2177,-0.222,-0.2246,-0.224,-0.2276,-0.2291,-0.2294,-0.228,-0.2259,-0.2258,-0.2257,-0.2263,-0.2262,-0.2262,0,0,-0.1804,-0.1844,-0.1867,-0.19,-0.1953,-0.1976,-0.1997,-0.2048,-0.2079,-0.2141,-0.2154,-0.2185,-0.2255,-0.2254,-0.2265,-0.2306,-0.2293,-0.2332,-0.2336,-0.2317,-0.2315,-0.2314,-0.2282,-0.2277,-0.2336,-0.2336,-0.2336,0,-0.1812,-0.1844,-0.188,-0.1911,-0.1942,-0.1991,-0.2023,-0.2058,-0.2125,-0.2147,-0.2169,-0.2239,-0.2258,-0.228,-0.2291,-0.2311,-0.23,-0.2317,-0.2319,-0.2317,-0.2315,-0.2282,-0.2277,-0.2337,-0.2337,-0.2337,-0.2337,0,-0.1824,-0.1868,-0.1887,-0.194,-0.1978,-0.2018,-0.2065,-0.2112,-0.2161,-0.2188,-0.2241,-0.2264,-0.2297,-0.231,-0.2317,-0.232,-0.2316,-0.2321,-0.2301,-0.2315,-0.228,-0.2274,-0.2338,-0.2338,-0.2338,-0.2337,0,0,-0.1786,-0.1879,-0.1888,-0.1925,-0.2,-0.2029,-0.2086,-0.2137,-0.2172,-0.223,-0.2262,-0.2297,-0.2311,-0.2321,-0.2332,-0.2317,-0.2291,-0.2321,-0.232,-0.2277,-0.2247,-0.2113,-0.2094,-0.2306,-0.2305,-0.2305,-0.2227,0,-0.1787,-0.1847,-0.1894,-0.1959,-0.1995,-0.206,-0.2104,-0.2159,-0.2211,-0.2255,-0.2272,-0.2311,-0.2316,-0.2337,-0.2322,-0.2306,-0.2278,-0.2311,-0.2251,-0.2248,-0.2117,-0.2083,-0.2302,-0.2222,-0.2221,-0.222,-0.2219,0,-0.1768,-0.1818,-0.1882,-0.1974,-0.1996,-0.2043,-0.2121,-0.2169,-0.223,-0.2269,-0.2303,-0.2327,-0.2324,-0.2327,-0.2281,-0.2311,-0.2274,-0.2251,-0.2248,-0.2108,-0.2102,-0.2208,-0.2208,-0.2209,-0.221,-0.221,-0.2211,0,-0.1706,-0.1803,-0.1857,-0.1891,-0.2,-0.2042,-0.2099,-0.2173,-0.221,-0.2277,-0.2305,-0.232,-0.2326,-0.2294,-0.2253,-0.2275,-0.2187,-0.2208,-0.2045,-0.2036,-0.2176,-0.2178,-0.215,-0.215,-0.215,-0.2151,-0.2151,0,-0.1667,-0.1713,-0.1841,-0.1871,-0.1933,-0.202,-0.2081,-0.2141,-0.2212,-0.2228,-0.2305,-0.2295,-0.2321,-0.2284,-0.2244,-0.2109,-0.2174,-0.2017,-0.1995,-0.2186,-0.219,-0.2171,-0.2174,-0.2148,-0.2148,-0.2149,-0.2149,0,-0.1584,-0.1671,-0.174,-0.1867,-0.1908,-0.1951,-0.2065,-0.2092,-0.2184,-0.2204,-0.2225,-0.2273,-0.2216,-0.2212,-0.2146,-0.2072,-0.1978,-0.1915,-0.2102,-0.2098,-0.1845,-0.185,-0.1716,-0.171,-0.1706,-0.1702,-0.1698,0,-0.1541,-0.1573,-0.1717,-0.1753,-0.1816,-0.1899,-0.194,-0.2057,-0.2076,-0.2152,-0.2131,-0.2134,-0.2138,-0.1926,-0.1951,-0.1852,-0.1833,-0.178,-0.1815,-0.1801,-0.1795,-0.1808,-0.182,-0.1691,-0.1689,-0.1688,-0.1687,0,-0.1452,-0.1521,-0.1578,-0.1657,-0.1718,-0.1772,-0.1841,-0.1841,-0.1942,-0.2048,-0.1968,-0.1924,-0.1856,-0.1802,-0.174,-0.1675,-0.1815,-0.173,-0.174,-0.1773,-0.1769,-0.1771,-0.1788,-0.167,-0.1673,-0.1674,-0.1675,0,-0.1377,-0.1396,-0.1478,-0.1528,-0.16,-0.1606,-0.1669,-0.1673,-0.1707,-0.1803,-0.1758,-0.1765,-0.1815,-0.1705,-0.1642,-0.1574,-0.1555,-0.1508,-0.1529,-0.1548,-0.1531,-0.1505,-0.1274,0,0,0,0,0,-0.1292,-0.1297,-0.1336,-0.1378,-0.1442,-0.1478,-0.1576,-0.1638,-0.1739,-0.1629,-0.1692,-0.1617,-0.1528,-0.1537,-0.1427,-0.157,-0.1568,-0.1439,-0.153,-0.1579,-0.1598,-0.1595,0,0,0,0,0,0,-0.1231,-0.1268,-0.1285,-0.1234,-0.1228,-0.1272,-0.1327,-0.1403,-0.1357,-0.1466,-0.142,-0.1505,-0.144,-0.1543,-0.1383,-0.1386,-0.1408,-0.146,-0.1455,-0.1568,-0.1585,-0.16,-0.1604,0,0,0,0,0]},{"header":{"parameterUnit":"m.s-1","parameterCategory":2,"la1":30.2991,"la2":30.254,"lo1":-89.0895,"lo2":-89.0444,"dy":0.0017,"dx":0.0017,"nx":28,"ny":28,"refTime":"2024-03-29T03:00:00:Z","depth":"4","parameterNumber":3,"parameterNumberName":"V-component_of_CURRENTS"},"data":[0,0,0,0,0,0,0,0,0,0,0,0,0,0,0,0,0,0,0,0,0,0,0,0,0,0,0,0,0,0,0,0,0,0,0,0,0,0,0,0,0,0,0,0,0,0,0,0,0,0,0,0,0,0,0,0,0,0,-0.0378,-0.0377,0,-0.0345,-0.0344,-0.0344,-0.0312,-0.0312,-0.0312,-0.0312,-0.0234,-0.0232,-0.023,0,0,0,0,0,0,0,0,0,0,0,0,0,-0.0387,-0.0387,-0.0378,-0.0377,-0.0377,-0.0345,-0.0344,-0.0344,-0.0312,-0.0312,-0.0312,-0.0311,-0.0234,-0.0232,-0.023,0,0,0,0,0,0,0,0,0,0,0,0,0,-0.037,-0.0387,-0.0378,-0.0358,-0.0356,-0.0345,-0.0344,-0.0344,-0.0313,-0.0312,-0.0312,-0.0311,-0.0235,-0.0232,-0.023,-0.0222,0,0,-0.0221,-0.022,0,0,0,0,0,0,0,0,-0.0371,-0.037,-0.0362,-0.036,-0.0358,-0.0333,-0.0319,-0.0301,-0.0313,-0.0328,-0.0311,-0.0311,-0.0264,-0.0259,-0.0253,-0.0218,-0.0215,-0.0221,-0.022,-0.0218,-0.0218,0,0,0,0,0,0,0,-0.0372,-0.0371,-0.0364,-0.0361,-0.0359,-0.0342,-0.034,-0.0315,-0.0297,-0.0327,-0.0325,-0.0323,-0.0262,-0.0255,-0.025,-0.0214,-0.0221,-0.0219,-0.0217,-0.0216,-0.0173,-0.0174,0,0,0,0,0,0,-0.0381,-0.0372,-0.0365,-0.0363,-0.0365,-0.0343,-0.034,-0.0341,-0.0298,-0.0292,-0.0323,-0.0321,-0.026,-0.0254,-0.0247,-0.0235,-0.0218,-0.0216,-0.0214,-0.0173,-0.0173,-0.0174,0,0,0,0,0,0,-0.0381,-0.0381,-0.0366,-0.0367,-0.0364,-0.0343,-0.0344,-0.034,-0.0337,-0.0296,-0.0289,-0.0325,-0.026,-0.0251,-0.0234,-0.0231,-0.0215,-0.0212,-0.0172,-0.0173,-0.0174,-0.021,0,0,0,0,0,0,-0.0382,-0.0381,-0.0388,-0.0368,-0.0365,-0.0365,-0.0345,-0.034,-0.0337,-0.0334,-0.0295,-0.0287,-0.0259,-0.0238,-0.0231,-0.0227,-0.021,-0.0172,-0.0173,-0.0174,-0.0208,-0.0212,-0.0215,0,0,0,0,0,-0.0382,-0.0392,-0.0389,-0.0388,-0.0375,-0.0365,-0.0362,-0.0344,-0.0337,-0.0339,-0.0316,-0.0289,-0.0239,-0.0237,-0.0228,-0.0223,-0.0171,-0.0172,-0.0173,-0.0206,-0.0211,-0.0215,0,0,0,0,0,0,-0.0399,-0.0389,-0.0386,-0.0392,-0.0383,-0.036,-0.0362,-0.0351,-0.0335,-0.0333,-0.0295,-0.0286,-0.0273,-0.0247,-0.0246,-0.0216,-0.02,-0.02,-0.0228,-0.0232,-0.0236,-0.0229,-0.0208,0,0,0,0,0,-0.0409,-0.0415,-0.04,-0.0408,-0.0404,-0.0386,-0.0382,-0.0371,-0.0353,-0.0346,-0.0319,-0.0292,-0.0271,-0.0251,-0.0233,-0.0212,-0.0176,-0.0205,-0.0208,-0.0211,-0.0201,-0.0149,-0.0146,-0.0178,-0.0178,-0.0178,0,0,-0.0419,-0.0414,-0.0418,-0.0412,-0.0404,-0.0402,-0.0382,-0.038,-0.0376,-0.0339,-0.0328,-0.0309,-0.0273,-0.0255,-0.0245,-0.0229,-0.0186,-0.0212,-0.0215,-0.0203,-0.015,-0.0146,-0.0143,-0.0178,-0.0178,-0.0178,0,0,-0.0438,-0.0438,-0.0447,-0.0442,-0.0435,-0.0421,-0.0424,-0.0406,-0.0395,-0.0386,-0.036,-0.0334,-0.0307,-0.027,-0.025,-0.0259,-0.0215,-0.0262,-0.0258,-0.0209,-0.0205,-0.0201,-0.0162,-0.0155,-0.0252,-0.0252,-0.0252,0,-0.0452,-0.0461,-0.0449,-0.0454,-0.0453,-0.0433,-0.0439,-0.0424,-0.0404,-0.0391,-0.0389,-0.0339,-0.0308,-0.0268,-0.0271,-0.0263,-0.0236,-0.0245,-0.0211,-0.0207,-0.0202,-0.0163,-0.0154,-0.0254,-0.0253,-0.0253,-0.0253,0,-0.0473,-0.0482,-0.0487,-0.0487,-0.0483,-0.0487,-0.0466,-0.046,-0.0448,-0.0426,-0.0399,-0.0359,-0.0322,-0.0312,-0.0291,-0.0248,-0.0241,-0.0231,-0.0198,-0.0201,-0.016,-0.015,-0.0256,-0.0256,-0.0255,-0.0255,0,0,-0.0498,-0.0502,-0.0506,-0.0515,-0.0502,-0.0504,-0.0493,-0.0474,-0.0467,-0.0438,-0.0417,-0.0372,-0.0346,-0.0321,-0.0289,-0.0239,-0.0188,-0.0223,-0.022,-0.018,-0.0086,-0.0098,-0.0089,-0.0175,-0.0173,-0.0172,-0.0074,0,-0.052,-0.0545,-0.0533,-0.0553,-0.0564,-0.054,-0.0533,-0.0512,-0.0487,-0.0462,-0.0404,-0.0379,-0.035,-0.0336,-0.0279,-0.0217,-0.0162,-0.0216,-0.0093,-0.0089,-0.0095,-0.0077,-0.0167,-0.0066,-0.0064,-0.0062,-0.0061,0,-0.0543,-0.0559,-0.0586,-0.0593,-0.0594,-0.0599,-0.0586,-0.0577,-0.0526,-0.0505,-0.0454,-0.0412,-0.0335,-0.0318,-0.0185,-0.0225,-0.0155,-0.0102,-0.0096,-0.0084,-0.0082,-0.0059,-0.0042,-0.0044,-0.0045,-0.0046,-0.0048,0,-0.0575,-0.0593,-0.0621,-0.0624,-0.0626,-0.0631,-0.0629,-0.0594,-0.0588,-0.0531,-0.0517,-0.0421,-0.038,-0.0275,-0.0165,-0.0173,-0.0023,-0.0018,0.0042,0.0041,0.0039,0.0034,0.0085,0.0085,0.0085,0.0085,0.0084,0,-0.06,-0.0623,-0.0645,-0.0661,-0.0695,-0.0675,-0.0693,-0.0673,-0.064,-0.0629,-0.0545,-0.051,-0.0369,-0.0269,-0.0164,-0.0033,-0.0017,0.0052,0.0072,0.0018,0.001,0.0045,0.004,0.0088,0.0087,0.0087,0.0086,0,-0.0627,-0.064,-0.0679,-0.07,-0.0715,-0.0741,-0.0757,-0.0761,-0.0722,-0.0704,-0.0688,-0.0572,-0.0437,-0.0295,-0.012,-0.0042,0.0088,0.0131,0.0059,0.0071,0.012,0.0111,0.0215,0.0215,0.0216,0.0216,0.0216,0,-0.064,-0.0665,-0.0722,-0.0759,-0.0775,-0.0812,-0.0836,-0.0814,-0.0811,-0.0739,-0.0728,-0.0599,-0.0507,-0.0262,-0.0118,0.009,0.0114,0.0177,0.016,0.0128,0.0137,0.0127,0.0118,0.0217,0.0217,0.0217,0.0217,0,-0.0666,-0.0692,-0.0727,-0.0809,-0.0855,-0.0898,-0.0924,-0.0922,-0.0881,-0.0853,-0.0741,-0.0602,-0.0449,-0.0258,-0.01,0.0045,0.0134,0.0182,0.0182,0.0167,0.0132,0.0138,0.0128,0.0219,0.0219,0.0218,0.0218,0,-0.0687,-0.0726,-0.0782,-0.0847,-0.0916,-0.0956,-0.0963,-0.0937,-0.0921,-0.0824,-0.079,-0.0609,-0.0502,-0.0281,-0.0136,0.0006,0.0042,0.0081,0.0087,0.0087,0.0015,-0.005,0.0009,0,0,0,0,0,-0.07,-0.0748,-0.0816,-0.0887,-0.0953,-0.0986,-0.1008,-0.0997,-0.0955,-0.0879,-0.0826,-0.0675,-0.0431,-0.0324,-0.0179,-0.0144,0.0048,0.0026,0.0091,0.0228,0.0226,0.0161,0,0,0,0,0,0,-0.0712,-0.0781,-0.0816,-0.0902,-0.0952,-0.1016,-0.1027,-0.0998,-0.0938,-0.0874,-0.0739,-0.0656,-0.0419,-0.0514,-0.0182,-0.0139,-0.0082,0.0144,0.0146,0.0229,0.0227,0.0225,0.0159,0,0,0,0,0]}]]